Powrót do katalogu

DMSP 5D-2 F13 DEB

AktywnySSO
NORAD 42327·DEBRIS·🇺🇸 United States

Wystrzelony Mar 24, 1995 z Vandenberg Space Force Base

Loading…

Następne Przeloty (najbliższe 24 godziny)

TLE

ŚwieżeSource: Space-Track

Epoka: Sep 12, 2026, 08:17 UTC

1 42327U 95015JV  26255.34519850  .00002646  00000-0  83104-3 0  9990
2 42327  98.6712 296.6589 0006942 107.2422 252.9527 14.41348482566263

Śledź DMSP 5D-2 F13 DEB w czasie rzeczywistym z AllMySat

Download on the App Store